[Date Prev][Date Next][Thread Prev][Thread Next] - [Date Index][Thread Index][Author Index]

2 Line ISS Keps 8-14



ISS
1 25544U 98067A   02226.12111597  .00027429  00000-0  36745-3 0   420
2 25544  51.6387 122.1956 0017687 137.9538  13.3966 15.57595826213066


----
Via the sarex mailing list at AMSAT.ORG courtesy of AMSAT-NA.
To unsubscribe, send "unsubscribe sarex" to Majordomo@amsat.org



AMSAT Top AMSAT Home